Location: Peach Mountain Observatory
(42.3967°N, 83.9367°W)
Time: 23:36:09
(UTC-05:00)

Transit 4A - Visible Passes

Search period start: 17 January 2020 00:00
Search period end: 27 January 2020 00:00
Orbit: 871 x 973 km, 66.8° (Epoch: 17 January)

Date Brightness Start Highest point End Pass type
(mag) Time Alt. Az. Time Alt. Az. Time Alt. Az.
17 Jan 10.7 19:21:41 10° WNW 19:25:14 17° WSW 19:28:47 10° SW visible
18 Jan 11.1 06:58:16 10° SE 07:01:18 14° ESE 07:04:18 10° ENE visible
18 Jan 11.3 19:33:52 10° W 19:34:13 10° W 19:34:35 10° WSW visible
19 Jan 10.7 07:05:50 10° SSE 07:10:21 22° ESE 07:14:47 10° ENE visible
19 Jan 8.9 17:52:33 10° NW 17:58:09 50° WSW 18:03:47 10° S visible
20 Jan 9.9 07:14:07 10° S 07:19:27 33° ESE 07:24:41 10° NE visible
20 Jan 9.9 18:02:10 10° NW 18:07:19 33° WSW 18:12:30 10° S visible
21 Jan 9.0 07:22:49 10° S 07:28:38 49° ESE 07:34:19 10° NE visible
21 Jan 10.7 18:12:05 10° WNW 18:16:26 22° WSW 18:20:48 10° SSW visible
22 Jan 11.3 05:51:58 10° ESE 05:52:33 10° E 05:53:08 10° E visible
22 Jan 11.1 18:22:32 10° WNW 18:25:28 14° WSW 18:28:23 10° SW visible
23 Jan 10.8 05:57:53 10° SE 06:01:32 17° ESE 06:05:10 10° ENE visible
24 Jan 10.1 06:05:46 10° SSE 06:10:37 25° ESE 06:15:23 10° NE visible
25 Jan 9.4 06:14:13 10° S 06:19:45 38° ESE 06:25:10 10° NE visible
26 Jan 8.5 06:23:03 10° SSW 06:28:57 57° ESE 06:34:44 10° NE visible
